TimeEST,TemperatureF,Dew PointF,Humidity,Sea Level PressureIn,VisibilityMPH,Wind Direction,Wind SpeedMPH,Gust SpeedMPH,PrecipitationIn,Events,Conditions,WindDirDegrees,DateUTC
12:15 AM,75.2,73.4,94,29.92,10.0,NNE,4.6,-,N/A,,Scattered Clouds,30,2013-02-25 05:15:00
12:35 AM,73.4,71.6,94,29.92,10.0,NE,5.8,-,N/A,,Scattered Clouds,50,2013-02-25 05:35:00
12:55 AM,73.4,71.6,94,29.92,10.0,ENE,5.8,-,N/A,,Clear,70,2013-02-25 05:55:00
1:15 AM,73.4,71.6,94,29.91,10.0,ENE,4.6,-,N/A,,Clear,70,2013-02-25 06:15:00
1:35 AM,73.4,71.6,94,29.91,10.0,Calm,Calm,-,N/A,,Clear,0,2013-02-25 06:35:00
1:55 AM,73.4,71.6,94,29.90,7.0,ENE,5.8,-,N/A,,Clear,60,2013-02-25 06:55:00
2:15 AM,73.4,71.6,94,29.90,10.0,ENE,4.6,-,N/A,,Clear,70,2013-02-25 07:15:00
2:35 AM,73.4,71.6,94,29.89,10.0,Calm,Calm,-,N/A,,Clear,0,2013-02-25 07:35:00
2:55 AM,73.4,71.6,94,29.88,7.0,Calm,Calm,-,N/A,,Clear,0,2013-02-25 07:55:00
3:15 AM,73.4,71.6,94,29.88,7.0,SSW,4.6,-,N/A,,Clear,200,2013-02-25 08:15:00
3:35 AM,71.6,69.8,94,29.88,5.0,SSW,4.6,-,N/A,,Scattered Clouds,210,2013-02-25 08:35:00
3:55 AM,71.6,69.8,94,29.88,1.5,SW,4.6,-,N/A,,Mostly Cloudy,220,2013-02-25 08:55:00
4:15 AM,69.8,69.8,100,29.88,1.8,SW,4.6,-,N/A,,Overcast,220,2013-02-25 09:15:00
4:35 AM,69.8,68.0,94,29.88,0.8,SSW,4.6,-,N/A,,Overcast,210,2013-02-25 09:35:00
4:55 AM,69.8,68.0,94,29.87,0.8,SSW,3.5,-,N/A,,Overcast,200,2013-02-25 09:55:00
5:15 AM,69.8,68.0,94,29.88,2.5,SSW,3.5,-,N/A,,Overcast,210,2013-02-25 10:15:00
6:47 AM,68.0,68.0,100,29.90,4.0,Variable,3.5,-,N/A,,Scattered Clouds,0,2013-02-25 11:47:00
7:47 AM,69.8,68.0,94,29.90,4.0,Calm,Calm,-,N/A,,Haze,0,2013-02-25 12:47:00
8:47 AM,73.4,69.8,88,29.93,7.0,South,4.6,-,N/A,,Partly Cloudy,170,2013-02-25 13:47:00
9:47 AM,78.8,71.6,78,29.93,7.0,South,8.1,-,N/A,,Scattered Clouds,190,2013-02-25 14:47:00
12:47 PM,82.4,66.2,58,29.88,5.0,South,9.2,-,N/A,,Haze,180,2013-02-25 17:47:00
1:55 PM,82.4,69.8,66,29.86,6.0,SE,13.8,-,N/A,,Haze,140,2013-02-25 18:55:00
2:55 PM,82.4,69.8,66,29.84,6.0,SE,11.5,16.1,N/A,,Haze,130,2013-02-25 19:55:00
3:47 PM,80.6,71.6,74,29.83,6.0,SSE,11.5,-,N/A,,Haze,160,2013-02-25 20:47:00
4:13 PM,80.6,71.6,74,29.83,2.0,SSE,16.1,27.6,N/A,Rain,Rain,160,2013-02-25 21:13:00
4:55 PM,73.4,69.8,88,29.85,5.0,East,9.2,-,N/A,,Haze,90,2013-02-25 21:55:00
5:47 PM,75.2,71.6,89,29.84,6.0,SE,4.6,-,N/A,,Haze,130,2013-02-25 22:47:00
6:47 PM,75.2,71.6,89,29.84,7.0,SE,11.5,-,N/A,,Mostly Cloudy,130,2013-02-25 23:47:00
7:15 PM,75.2,69.8,83,29.85,10.0,SSE,8.1,-,N/A,,Mostly Cloudy,160,2013-02-26 00:15:00
7:35 PM,75.2,69.8,83,29.85,10.0,SSE,10.4,-,N/A,,Scattered Clouds,160,2013-02-26 00:35:00
7:55 PM,75.2,69.8,83,29.85,10.0,SSE,10.4,-,N/A,,Scattered Clouds,160,2013-02-26 00:55:00
8:15 PM,75.2,71.6,89,29.86,10.0,SSE,8.1,-,N/A,,Clear,160,2013-02-26 01:15:00
8:35 PM,75.2,71.6,89,29.86,10.0,South,8.1,-,N/A,,Clear,170,2013-02-26 01:35:00
8:55 PM,75.2,71.6,89,29.86,10.0,South,10.4,-,N/A,,Clear,170,2013-02-26 01:55:00
9:15 PM,75.2,71.6,89,29.86,10.0,South,10.4,-,N/A,,Clear,170,2013-02-26 02:15:00
9:35 PM,75.2,71.6,89,29.87,10.0,South,9.2,-,N/A,,Clear,180,2013-02-26 02:35:00
9:55 PM,73.4,71.6,94,29.87,10.0,South,8.1,-,N/A,,Clear,180,2013-02-26 02:55:00
10:15 PM,73.4,71.6,94,29.87,10.0,South,8.1,-,N/A,,Clear,180,2013-02-26 03:15:00
10:35 PM,73.4,71.6,94,29.87,10.0,South,8.1,-,N/A,,Clear,170,2013-02-26 03:35:00
10:55 PM,73.4,69.8,88,29.87,10.0,South,6.9,-,N/A,,Clear,170,2013-02-26 03:55:00
11:15 PM,73.4,71.6,94,29.87,10.0,South,6.9,-,N/A,,Clear,180,2013-02-26 04:15:00
11:35 PM,73.4,69.8,88,29.86,10.0,South,8.1,-,N/A,,Clear,170,2013-02-26 04:35:00
11:55 PM,73.4,69.8,88,29.85,10.0,South,9.2,-,N/A,,Clear,170,2013-02-26 04:55:00